User: anonymous   Login
Location: Newark
(33.4453°N, 112.0669°W)
Time: 14:47:05
(UTC+00:00)
Language:

Transit 2A - Orbit

View from above orbital plane
View from above orbital plane
View from above satellite
View from above satellite

Ground track
Ground track

The orbit data is extracted from the following two-line orbital elements,

1    45U 60007A   20052.17863769 -.00000023  00000-0  21106-4 0  9998
2    45  66.6961 329.9755 0250955  39.6738 322.2424 14.33667145105899
Epoch (UTC): 21 February 2020 04:17:14
Eccentricity: 0.0250955
inclination: 66.6961°
perigee height: 600 km
apogee height: 959 km
right ascension of ascending node: 329.9755°
argument of perigee: 39.6738°
revolutions per day: 14.33667145
mean anomaly at epoch: 322.2424°
orbit number at epoch: 10589

The dashed part of the orbit path shows where the satellite is in the earth's shadow,  

DLR